Location: Luxembourg
(49.6117°N, 6.1300°E)
Time: 05:24:59
(UTC+01:00)

OTV 5 (USA 277) - Pass Details

Date: 31 January 2019
Orbit: 342 x 346 km, 54.5° (Epoch: 17 February)

Event Time Altitude Azimuth Distance (km) Brightness Sun altitude
Exits shadow 05:12:41 11° 86° (E) 1,251 ? -28.7°
Drops below altitude 10° 05:12:43 11° 86° (E) 1,262 ? -28.7°
Sets 05:15:04 0° 69° (ENE) 2,140 ? -28.3°
